Tracking 29892 objects as of 21-Nov-2024
HD Live streaming from Space Station
objects crossing your sky now

STARLINK-3657

Track STARLINK-3657 now!
10-day predictions
STARLINK-3657 is classified as:


NORAD ID: 51990
Int'l Code: 2022-025AL
Perigee: 545.9 km
Apogee: 547.9 km
Inclination: 53.2 °
Period: 95.4 minutes
Semi major axis: 6917 km
RCS: Unknown
Launch date: March 9, 2022
Source: United States (US)
Launch site: AIR FORCE EASTERN TEST RANGE (AFETR)
Your satellite tracking list
Your tracking list is empty




NASA's NSSDC Master Catalog

Two Line Element Set (TLE):
1 51990U 22025AL  24325.46704593 -.00004750  00000-0 -28053-3 0  9998
2 51990  53.2164 347.9877 0001438 116.8678 243.2461 15.08840484149744
Source of the keplerian elements: AFSPC